Meadville, PA

5:22 AM EST on December 13, 2017 (GMT -0500)
Port Meadville

Weather History for KGKJ - February, 2013

Change the Weather History Date:

Saturday, February 23, 2013

  Actual Average Record
Temperature  
Mean Temperature 32 °F -  
Max Temperature 35 °F 43 °F 64 °F (2017)
Min Temperature 28 °F 22 °F -8 °F (1963)
Degree Days  
Heating Degree Days 34    
Moisture  
Dew Point 29 °F    
Average Humidity 86    
Maximum Humidity 96    
Minimum Humidity 72    
Precipitation  
Precipitation 0.06 in - - ()
Sea Level Pressure  
Sea Level Pressure 29.91 in    
Wind  
Wind Speed 4 mph (SW)    
Max Wind Speed 9 mph    
Max Gust Speed -    
Visibility 3 miles    
Events Fog , Rain    
Averages and records for this station are not official NWS values.
T = Trace of Precipitation, MM = Missing Value Source: NWS Daily Summary

Daily Weather History Graph

Daily Weather History Graph

Search for Another Location

Airport or City:

Trip Planner

Search our weather history database for the weather conditions in past years. The results will help you decide how hot, cold, wet, or windy it might be!

Date:

Astronomy

Feb. 23, 2013 Rise Set
Actual Time 7:04 AM EST 6:04 PM EST
Civil Twilight 6:36 AM EST 6:32 PM EST
Nautical Twilight 6:04 AM EST 7:04 PM EST
Astronomical Twilight 5:32 AM EST 7:36 PM EST
Moon 4:12 PM EST (2/23) 5:27 AM EST (2/23)
Length of Visible Light 11h 56m
Length of Day
11h 00m
Waxing Gibbous, 95% of the Moon is Illuminated
Feb 23
Waxing Gibbous
Feb 25
Full
Mar 4
Last Quarter
Mar 11
New
Mar 19
First Quarter

Hourly Weather History & Observations

Time (EST) Temp. Windchill Dew Point Humidity Pressure Visibility Wind Dir Wind Speed Gust Speed Precip Events Conditions
12:50 AM 32.0 °F 28.7 °F 30.2 °F 93% 29.95 in 3.0 mi Variable 3.5 mph - N/A   Overcast
12:53 AM 32.0 °F - 30.0 °F 92% 29.99 in 3.0 mi Calm Calm - N/A   Overcast
1:53 AM 32.0 °F 28.7 °F 30.0 °F 92% 29.98 in 3.0 mi Variable 3.5 mph - N/A   Overcast
2:04 AM 32.0 °F 27.5 °F 30.2 °F 93% 29.94 in 2.0 mi Variable 4.6 mph - N/A   Overcast
2:14 AM 32.0 °F 27.5 °F 30.2 °F 93% 29.94 in 1.8 mi SSE 4.6 mph - N/A   Overcast
2:53 AM 32.0 °F 28.7 °F 30.0 °F 92% 29.97 in 1.2 mi Variable 3.5 mph - N/A   Overcast
3:53 AM 32.0 °F 27.5 °F 30.0 °F 92% 29.95 in 2.0 mi SSE 4.6 mph - N/A   Overcast
4:01 AM 32.0 °F 28.7 °F 30.2 °F 93% 29.91 in 1.8 mi South 3.5 mph - N/A   Overcast
4:53 AM 32.0 °F 28.7 °F 30.0 °F 92% 29.94 in 1.8 mi Variable 3.5 mph - N/A   Overcast
5:12 AM 32.0 °F 28.7 °F 30.2 °F 93% 29.90 in 2.0 mi SSE 3.5 mph - N/A   Overcast
5:53 AM 32.0 °F 27.5 °F 30.0 °F 92% 29.95 in 2.0 mi South 4.6 mph - N/A   Overcast
6:14 AM 32.0 °F 27.5 °F 30.2 °F 93% 29.91 in 1.5 mi Variable 4.6 mph - N/A   Overcast
6:53 AM 32.0 °F 27.5 °F 30.9 °F 96% 29.96 in 1.0 mi South 4.6 mph - 0.00 in Rain Light Freezing Rain
7:07 AM 32.0 °F 27.5 °F 30.2 °F 93% 29.92 in 1.0 mi South 4.6 mph - 0.00 in Rain Light Freezing Rain
7:22 AM 32.0 °F 26.4 °F 30.2 °F 93% 29.92 in 0.8 mi South 5.8 mph - 0.00 in   Overcast
7:42 AM 32.0 °F 28.7 °F 30.2 °F 93% 29.92 in 0.2 mi Variable 3.5 mph - 0.00 in Fog Fog
7:50 AM 32.0 °F - 30.2 °F 93% 29.91 in 0.5 mi Calm Calm - 0.00 in Fog Fog
7:53 AM 32.0 °F 28.7 °F 30.9 °F 96% 29.95 in 0.8 mi South 3.5 mph - 0.00 in   Overcast
8:15 AM 33.8 °F 29.6 °F 30.2 °F 87% 29.90 in 1.0 mi Variable 4.6 mph - N/A   Overcast
8:53 AM 33.1 °F 28.7 °F 30.9 °F 92% 29.94 in 1.2 mi South 4.6 mph - N/A   Overcast
9:00 AM 33.8 °F 29.6 °F 30.2 °F 87% 29.90 in 1.2 mi South 4.6 mph - N/A   Overcast
9:53 AM 33.1 °F 28.7 °F 30.9 °F 92% 29.94 in 1.2 mi Variable 4.6 mph - 0.01 in   Overcast
10:05 AM 33.8 °F 29.6 °F 30.2 °F 87% 29.89 in 1.5 mi South 4.6 mph - N/A   Overcast
10:35 AM 33.8 °F 29.6 °F 30.2 °F 87% 29.88 in 2.0 mi Variable 4.6 mph - 0.03 in   Overcast
10:46 AM 33.8 °F 28.6 °F 30.2 °F 87% 29.89 in 2.5 mi Variable 5.8 mph - 0.03 in   Overcast
10:53 AM 34.0 °F 29.8 °F 30.9 °F 89% 29.93 in 2.5 mi South 4.6 mph - 0.04 in   Overcast
10:59 AM 33.8 °F 28.6 °F 30.2 °F 87% 29.89 in 3.0 mi SSW 5.8 mph - N/A   Overcast
11:33 AM 35.6 °F 29.2 °F 28.4 °F 75% 29.88 in 4.0 mi SW 8.1 mph - 0.01 in   Haze
11:46 AM 35.6 °F 30.7 °F 28.4 °F 75% 29.88 in 4.0 mi SW 5.8 mph - 0.01 in   Haze
11:53 AM 35.1 °F 29.3 °F 28.9 °F 78% 29.92 in 5.0 mi SW 6.9 mph - 0.01 in   Haze
12:53 PM 34.0 °F 26.6 °F 28.0 °F 79% 29.90 in 7.0 mi West 9.2 mph - N/A   Overcast
1:53 PM 34.0 °F 28.0 °F 28.0 °F 79% 29.89 in 7.0 mi WNW 6.9 mph - N/A   Overcast
2:17 PM 33.8 °F 29.6 °F 28.4 °F 81% 29.86 in 5.0 mi West 4.6 mph - N/A   Haze
2:53 PM 33.1 °F 27.7 °F 28.0 °F 82% 29.89 in 5.0 mi West 5.8 mph - N/A   Haze
3:05 PM 33.8 °F 30.8 °F 26.6 °F 75% 29.85 in 5.0 mi West 3.5 mph - N/A   Haze
3:43 PM 33.8 °F 28.6 °F 26.6 °F 75% 29.86 in 5.0 mi WNW 5.8 mph - N/A   Haze
3:53 PM 33.1 °F 27.7 °F 27.0 °F 78% 29.90 in 6.0 mi West 5.8 mph - N/A   Haze
4:53 PM 33.1 °F 26.9 °F 26.1 °F 75% 29.89 in 7.0 mi West 6.9 mph - N/A   Overcast
5:53 PM 32.0 °F - 25.0 °F 75% 29.90 in 7.0 mi Calm Calm - N/A   Overcast
6:53 PM 30.0 °F 23.2 °F 21.9 °F 72% 29.91 in 9.0 mi North 6.9 mph - N/A   Overcast
7:53 PM 28.9 °F 22.8 °F 21.9 °F 75% 29.92 in 8.0 mi NNW 5.8 mph - N/A   Overcast
8:53 PM 28.9 °F 22.8 °F 21.9 °F 75% 29.91 in 8.0 mi North 5.8 mph - N/A   Overcast
9:53 PM 28.0 °F 22.8 °F 21.9 °F 78% 29.90 in 7.0 mi NNW 4.6 mph - N/A   Overcast
11:53 PM 28.0 °F 24.2 °F 21.9 °F 78% 29.88 in 6.0 mi NNW 3.5 mph - N/A   Haze